Temp
4 4 4 4 4 4 4 5 6 6 5 5 6 6 6 6 7 6 6 7 8 9 9 9 9 9 9 8 7 8 8 8 8 8 9 10 10 10 9 11 11 9 11 11 11 11 11
5 4 4 4 3 4 4 5 6 7 6 5 6 6 6 7 7 8 7 8 9 9 9 9 9 9 9 7 7 8 8 8 8 9 9 9 9 9 10 11 10 11 11 11 11 11 11
7 6 4 4 6 5 6 5 6 7 8 7 6 6 6 6 7 8 8 8 9 9 9 9 9 9 9 7 7 8 8 8 8 9 9 9 9 8 9 9 11 11 9 9 10 11 10
8 8 6 4 6 7 6 6 6 6 7 8 7 7 7 6 6 7 8 8 9 9 9 9 9 9 7 8 8 8 8 8 9 9 9 8 8 8 9 10 10 9 9 8 11 11 12
8 8 8 7 7 7 7 7 7 7 7 7 8 8 8 9 9 8 8 9 9 9 9 10 10 10 8 8 8 8 8 8 8 9 9 8 8 9 9 8 9 8 7 8 9 11 11
8 8 8 8 8 8 7 8 8 8 8 8 7 8 9 9 9 9 9 9 9 9 10 9 10 10 8 8 8 9 8 9 8 9 9 9 8 7 6 8 7 7 7 8 8 10 11
9 9 8 8 8 8 8 8 8 8 8 8 8 8 8 9 9 10 10 10 10 10 9 8 9 8 8 8 9 9 9 8 9 9 8 9 7 6 7 9 9 9 8 7 8 10 9
10 9 9 9 9 9 8 9 9 8 8 9 9 9 9 9 9 10 11 10 8 8 9 9 9 9 9 8 8 9 9 9 9 7 8 7 6 8 10 10 9 8 7 7 7 10 10
9 10 10 9 9 9 9 8 9 9 9 9 9 9 9 9 10 10 9 8 8 8 8 9 9 9 9 9 9 9 9 8 8 8 8 6 8 10 10 8 8 8 7 7 7 8 8
10 10 10 10 10 9 9 9 9 9 9 9 9 10 10 10 9 9 9 8 8 7 4 8 10 10 9 9 9 9 9 8 8 8 8 7 10 9 8 8 9 6 8 8 7 6 5
10 10 10 10 10 10 10 10 9 10 10 10 9 10 10 10 9 9 8 8 8 8 5 9 10 10 10 10 10 9 9 8 7 7 8 6 9 8 7 8 9 7 8 7 7 5 6
11 10 10 10 10 10 10 10 10 10 10 10 10 10 10 9 9 9 8 8 8 4 5 8 10 10 10 10 10 10 9 8 9 8 7 7 9 9 8 9 8 9 7 6 7 5 6
10 11 10 10 10 10 10 10 10 10 10 10 11 11 10 10 9 9 8 8 4 4 8 9 9 9 9 9 10 10 9 8 6 3 5 6 8 9 9 8 8 8 7 4 7 6 4
11 10 10 10 9 10 10 10 11 11 11 11 11 11 11 10 9 9 8 5 5 10 9 10 10 9 8 10 10 10 9 7 8 7 2 2 4 9 9 8 7 7 8 5 2 5 5
11 11 10 10 10 9 9 10 10 11 11 12 12 11 11 10 9 9 8 3 6 9 9 8 8 9 10 10 9 9 8 7 7 7 4 3 5 9 9 9 7 7 5 8 7 5 4
11 11 10 10 10 10 8 9 10 10 10 11 11 11 10 9 9 8 4 6 9 9 9 9 8 10 9 9 9 8 9 8 7 7 6 5 3 6 8 8 8 7 7 3 6 4 6
11 11 10 10 9 8 8 8 9 10 10 11 11 10 9 9 9 8 3 5 10 9 9 8 8 9 9 9 9 8 9 8 8 6 7 6 4 4 8 6 5 5 4 6 3 4 3
9 10 10 9 9 7 7 7 8 9 10 11 10 7 9 9 8 7 4 9 9 9 8 8 8 8 8 9 8 9 9 9 7 7 6 6 3 1 5 7 7 7 7 5 3 4 2
9 9 9 9 7 7 7 7 8 8 9 9 9 8 9 9 4 5 8 9 9 9 8 8 8 8 9 8 7 7 9 7 7 6 6 5 1 -1 5 5 6 5 5 5 1 0 1
7 8 8 8 7 7 7 7 7 7 8 8 8 4 9 8 8 8 8 9 9 8 8 9 8 8 8 7 6 7 8 6 7 6 5 5 1 1 3 5 5 4 6 5 3 -2 -0
6 6 7 8 8 6 6 7 7 7 7 8 8 7 6 4 7 8 8 8 9 9 7 8 7 7 7 7 8 6 7 6 5 5 4 3 -2 1 2 3 4 4 4 5 1 3 1
7 7 7 6 6 6 6 6 6 7 6 7 8 7 7 7 8 7 7 7 9 10 7 7 6 8 6 6 8 8 8 7 6 3 3 2 -0 -3 -1 2 2 3 3 4 5 5 5
7 7 6 6 6 6 6 6 6 6 6 6 6 6 6 7 6 6 6 8 9 10 10 9 7 7 7 6 8 8 7 7 6 3 2 1 -1 -1 2 4 1 2 4 4 4 4 6
5 6 6 6 6 6 6 5 6 6 6 6 5 5 5 5 6 7 8 9 8 8 8 9 8 7 7 7 7 7 5 4 4 4 5 1 -0 0 1 1 7 9 7 5 6 7 6
5 5 5 5 5 5 5 5 5 6 6 6 5 4 5 4 6 6 7 8 8 9 7 8 8 7 7 6 4 4 2 3 4 4 2 2 1 0 1 1 6 10 7 6 5 8 6
5 5 5 5 5 5 5 5 5 5 5 5 5 5 4 3 5 7 7 8 7 6 6 7 6 6 5 4 4 5 5 8 4 2 0 1 1 -0 1 3 8 10 9 8 9 7 9
4 4 4 5 4 4 5 5 5 5 4 4 5 5 4 2 5 6 6 7 8 7 6 5 5 4 4 2 2 2 4 7 6 3 -0 -1 1 0 1 3 5 7 8 9 10 10 11
2 3 4 4 4 4 4 4 4 4 4 4 4 4 4 3 4 5 6 6 7 7 6 5 6 3 1 2 1 2 3 5 6 4 1 1 0 0 1 3 6 7 7 9 10 12 12
2 1 1 2 2 2 3 4 3 3 3 3 3 4 4 3 3 5 5 4 6 6 7 6 7 5 4 3 2 3 4 2 4 5 4 5 6 4 5 5 9 9 11 13 12 12 12
Height
1535 1532 1527 1523 1519 1514 1509 1507 1507 1502 1498 1495 1492 1490 1490 1490 1490 1494 1498 1501 1504 1507 1508 1509 1510 1510 1511 1512 1518 1520 1520 1520 1520 1519 1519 1519 1517 1516 1517 1514 1514 1513 1511 1510 1510 1510 1510
1539 1535 1531 1528 1523 1519 1515 1512 1511 1509 1505 1502 1499 1497 1497 1497 1500 1504 1506 1507 1509 1510 1511 1512 1513 1514 1516 1515 1522 1522 1522 1522 1522 1522 1522 1520 1518 1517 1516 1513 1513 1512 1511 1510 1509 1508 1507
1543 1539 1536 1533 1529 1525 1521 1518 1516 1516 1514 1512 1509 1508 1505 1507 1508 1509 1510 1512 1514 1514 1515 1517 1518 1518 1517 1522 1523 1524 1524 1524 1523 1521 1521 1521 1520 1519 1519 1516 1514 1512 1513 1510 1505 1502 1504
1549 1544 1540 1537 1534 1532 1528 1525 1522 1522 1521 1520 1519 1518 1516 1515 1515 1515 1516 1518 1519 1520 1521 1521 1520 1520 1523 1525 1525 1526 1527 1525 1524 1523 1523 1522 1520 1520 1519 1517 1514 1514 1512 1513 1500 1499 1500
1554 1550 1546 1542 1539 1536 1535 1532 1529 1527 1526 1526 1526 1525 1524 1524 1524 1524 1524 1523 1524 1524 1523 1523 1523 1523 1527 1528 1527 1527 1527 1526 1525 1524 1523 1522 1521 1520 1519 1519 1517 1515 1519 1512 1507 1500 1499
1557 1555 1552 1548 1545 1541 1538 1538 1537 1534 1532 1531 1530 1530 1531 1529 1529 1528 1527 1526 1526 1525 1524 1523 1524 1526 1529 1530 1528 1528 1527 1526 1525 1523 1523 1523 1523 1521 1522 1521 1525 1522 1519 1512 1513 1503 1498
1561 1558 1556 1554 1550 1548 1545 1543 1540 1539 1539 1538 1536 1535 1533 1532 1532 1532 1529 1528 1529 1528 1524 1528 1530 1530 1530 1530 1529 1528 1526 1525 1524 1524 1523 1521 1524 1527 1521 1516 1515 1513 1512 1513 1507 1500 1498
1564 1562 1559 1557 1555 1552 1549 1548 1546 1544 1542 1541 1540 1539 1538 1536 1534 1533 1531 1529 1531 1533 1532 1530 1529 1528 1528 1527 1528 1528 1527 1526 1524 1525 1520 1522 1523 1515 1513 1511 1511 1511 1512 1511 1504 1497 1495
1567 1564 1563 1560 1558 1556 1553 1551 1549 1547 1545 1543 1541 1540 1540 1539 1537 1535 1534 1534 1533 1532 1532 1531 1530 1529 1528 1528 1526 1525 1526 1525 1524 1523 1521 1525 1517 1512 1511 1512 1511 1511 1511 1508 1509 1501 1494
1569 1567 1564 1562 1560 1558 1556 1554 1552 1550 1548 1546 1544 1542 1541 1539 1539 1536 1535 1535 1534 1533 1541 1533 1530 1530 1528 1527 1527 1524 1523 1525 1523 1522 1519 1519 1512 1511 1512 1512 1510 1514 1506 1506 1506 1509 1511
1571 1568 1566 1564 1562 1560 1558 1556 1553 1551 1549 1548 1546 1544 1542 1540 1539 1538 1538 1535 1533 1535 1562 1533 1530 1528 1526 1528 1526 1525 1523 1521 1522 1522 1523 1521 1513 1513 1512 1509 1509 1511 1505 1505 1505 1508 1505
1571 1569 1567 1565 1562 1560 1558 1556 1554 1552 1550 1548 1546 1544 1543 1541 1539 1538 1536 1534 1534 1548 1560 1534 1529 1527 1526 1523 1522 1521 1521 1521 1519 1518 1517 1516 1510 1511 1510 1506 1506 1505 1506 1505 1503 1507 1503
1572 1570 1567 1565 1563 1561 1558 1556 1553 1551 1549 1546 1544 1542 1541 1540 1539 1536 1534 1534 1547 1556 1538 1534 1531 1529 1528 1525 1521 1521 1521 1522 1527 1535 1527 1517 1509 1507 1507 1509 1504 1505 1509 1518 1503 1505 1515
1572 1570 1568 1565 1563 1561 1558 1556 1553 1550 1547 1544 1541 1540 1539 1538 1537 1535 1534 1536 1552 1535 1535 1531 1530 1528 1530 1524 1524 1522 1522 1526 1524 1525 1537 1536 1527 1508 1506 1508 1510 1508 1504 1518 1541 1514 1503
1574 1570 1567 1565 1562 1560 1558 1555 1552 1549 1546 1543 1540 1538 1536 1537 1536 1535 1536 1551 1546 1535 1534 1533 1529 1530 1527 1526 1529 1525 1525 1528 1525 1526 1533 1536 1522 1506 1506 1506 1510 1506 1514 1503 1506 1511 1514
1574 1570 1567 1565 1562 1560 1556 1554 1551 1548 1545 1541 1538 1535 1535 1536 1536 1536 1538 1542 1535 1534 1534 1533 1533 1528 1531 1527 1528 1530 1523 1525 1527 1526 1527 1528 1535 1509 1507 1508 1507 1509 1509 1522 1509 1521 1503
1573 1570 1567 1564 1561 1558 1556 1553 1550 1548 1545 1541 1537 1535 1535 1535 1535 1537 1548 1542 1533 1533 1534 1535 1533 1531 1528 1529 1525 1527 1523 1525 1525 1527 1527 1527 1533 1518 1505 1508 1510 1514 1515 1510 1519 1512 1523
1571 1568 1565 1562 1559 1557 1555 1552 1550 1546 1544 1541 1538 1537 1536 1535 1537 1536 1541 1534 1534 1532 1532 1533 1532 1532 1530 1527 1527 1525 1522 1520 1524 1525 1527 1527 1531 1535 1512 1501 1500 1502 1505 1509 1523 1516 1516
1567 1565 1563 1560 1557 1556 1553 1552 1549 1546 1543 1540 1538 1537 1536 1535 1543 1540 1534 1533 1532 1532 1532 1532 1531 1529 1528 1529 1530 1525 1521 1522 1523 1524 1525 1526 1535 1546 1511 1509 1502 1502 1500 1504 1518 1522 1518
1564 1562 1560 1558 1556 1554 1552 1550 1548 1546 1544 1543 1540 1540 1536 1535 1534 1534 1534 1530 1530 1530 1530 1530 1529 1529 1529 1527 1525 1523 1520 1521 1521 1522 1523 1524 1530 1528 1523 1504 1500 1501 1494 1499 1508 1536 1516
1562 1560 1557 1555 1553 1552 1550 1548 1547 1545 1543 1543 1542 1540 1540 1539 1534 1533 1534 1531 1527 1527 1527 1525 1525 1526 1527 1527 1523 1525 1519 1519 1520 1520 1523 1525 1535 1520 1510 1501 1499 1494 1493 1491 1500 1494 1505
1558 1556 1554 1552 1551 1549 1548 1546 1544 1543 1542 1541 1542 1541 1540 1537 1534 1534 1531 1528 1525 1523 1525 1524 1525 1520 1521 1521 1516 1516 1515 1517 1516 1519 1519 1521 1528 1528 1516 1493 1495 1490 1481 1481 1477 1478 1477
1553 1552 1550 1549 1547 1546 1545 1544 1543 1541 1541 1539 1536 1538 1539 1534 1532 1533 1529 1525 1522 1521 1518 1518 1518 1519 1518 1513 1510 1508 1507 1507 1509 1514 1517 1519 1525 1527 1511 1493 1496 1489 1464 1466 1463 1459 1459
1548 1547 1546 1545 1543 1542 1542 1541 1540 1540 1538 1537 1536 1534 1535 1532 1529 1526 1521 1521 1520 1518 1517 1514 1515 1515 1511 1510 1509 1504 1501 1502 1504 1506 1507 1516 1519 1521 1514 1501 1483 1447 1445 1447 1448 1442 1444
1542 1541 1541 1541 1540 1538 1537 1537 1536 1535 1535 1534 1532 1531 1529 1526 1524 1520 1517 1516 1512 1511 1511 1508 1507 1508 1507 1508 1509 1506 1506 1501 1498 1499 1504 1508 1516 1518 1517 1512 1470 1439 1445 1447 1447 1433 1427
1535 1535 1535 1535 1535 1534 1533 1532 1531 1530 1530 1528 1528 1526 1524 1522 1515 1513 1513 1511 1509 1507 1506 1502 1503 1504 1506 1507 1508 1506 1503 1486 1500 1505 1504 1505 1511 1520 1511 1505 1470 1438 1438 1438 1439 1441 1415
1527 1528 1528 1529 1528 1527 1527 1527 1527 1525 1524 1522 1521 1522 1519 1514 1507 1508 1508 1507 1506 1504 1502 1500 1500 1502 1504 1507 1510 1509 1497 1483 1488 1496 1507 1513 1510 1511 1509 1497 1464 1435 1434 1438 1442 1435 1415
1520 1521 1522 1522 1522 1520 1519 1519 1519 1520 1519 1516 1512 1513 1513 1504 1498 1499 1499 1499 1499 1499 1498 1499 1502 1498 1501 1504 1505 1497 1494 1480 1477 1479 1487 1489 1499 1500 1498 1494 1464 1428 1433 1436 1421 1415 1415
1513 1514 1515 1516 1515 1514 1513 1511 1510 1511 1512 1511 1505 1505 1505 1500 1491 1488 1487 1490 1491 1492 1494 1492 1489 1488 1487 1490 1489 1484 1480 1478 1473 1475 1467 1473 1460 1465 1462 1447 1421 1420 1417 1415 1414 1413 1413
Wind_Speed
30 30 31 31 29 29 31 34 33 33 30 30 26 19 16 19 26 26 23 21 19 17 17 20 16 11 9 13 9 6 9 9 11 9 5 5 9 4 3 1 2 4 4 5 6 10 12
32 29 30 30 28 29 30 31 33 31 31 32 33 33 32 31 32 30 26 23 20 19 18 16 16 14 8 11 11 10 9 7 3 6 5 6 7 7 5 4 2 1 7 12 13 18 19
33 30 29 29 29 29 32 31 29 29 30 31 32 31 32 30 28 27 21 17 15 18 19 18 14 12 16 11 8 9 6 3 3 2 4 5 5 6 11 6 7 6 6 8 16 17 6
33 30 27 27 28 29 31 33 31 29 28 25 28 27 25 22 21 17 17 13 16 17 14 11 9 6 8 12 9 4 3 8 8 5 4 5 5 6 3 8 6 3 1 2 5 7 3
31 32 27 26 26 27 28 29 30 27 25 25 25 26 24 23 20 18 18 19 16 11 10 9 10 6 4 6 2 1 1 2 4 8 8 7 8 3 4 3 4 2 4 2 7 5 4
29 29 29 25 24 24 25 25 25 25 25 24 22 22 22 22 21 19 17 18 19 14 4 5 7 4 5 4 5 4 5 4 4 7 11 9 5 2 3 2 2 7 4 4 6 6 4
27 27 26 26 23 22 21 21 21 20 19 18 16 14 15 15 11 6 4 2 3 5 20 10 5 7 2 3 4 5 6 5 11 11 3 7 2 5 8 2 5 4 4 6 5 10 5
25 25 24 23 23 21 18 17 16 15 13 12 13 10 9 8 16 19 15 11 10 2 4 6 5 7 4 4 3 2 9 5 6 5 10 5 4 9 5 6 7 6 7 6 8 7 6
23 22 22 21 20 19 19 18 16 15 13 12 11 10 11 12 10 12 19 17 11 3 0 1 3 2 2 1 1 2 7 9 4 4 3 3 6 8 5 6 7 5 5 4 6 8 6
23 21 19 19 18 17 17 16 17 16 15 13 8 5 3 1 5 10 13 17 14 1 4 4 1 1 1 2 2 3 5 2 3 4 5 5 3 4 6 5 3 4 2 3 7 5 4
21 21 19 17 16 15 14 15 15 15 15 14 12 8 6 5 7 9 11 16 8 1 5 4 3 3 4 2 4 3 4 2 4 5 2 7 3 3 3 1 2 6 5 4 3 4 4
21 20 20 17 16 15 14 13 13 14 14 13 12 11 10 10 14 12 13 12 2 6 3 4 2 3 3 5 4 2 4 4 5 3 4 8 6 3 4 4 4 8 5 5 1 1 3
21 20 20 19 17 15 15 14 15 15 15 15 15 12 10 12 14 14 9 4 5 5 1 5 2 4 4 3 2 4 2 1 2 6 4 6 4 2 3 4 4 1 2 3 1 1 5
25 24 20 19 18 17 15 16 15 15 16 17 17 11 10 9 12 9 2 4 7 2 1 3 3 5 3 1 2 2 2 1 2 2 2 1 7 3 3 3 2 3 1 2 3 2 4
21 22 22 20 19 19 18 16 16 17 17 16 16 12 8 4 7 3 1 5 5 1 1 4 6 2 2 1 2 2 3 2 2 2 2 3 5 2 2 1 4 3 1 2 3 3 2
19 20 21 22 20 20 20 19 17 17 18 17 16 10 4 6 4 2 4 2 1 1 1 1 1 0 2 4 1 4 2 1 2 1 3 3 5 4 3 1 4 3 4 2 2 3 4
18 19 20 20 20 19 19 20 20 18 19 17 12 4 2 7 2 1 2 4 2 3 1 1 3 3 3 2 1 2 3 0 2 3 3 2 3 6 1 4 5 1 3 2 2 3 4
16 18 20 20 19 18 19 19 22 21 18 17 6 3 2 6 1 1 1 2 2 3 3 3 2 3 3 3 3 3 3 2 6 3 2 2 2 5 9 2 3 3 4 4 3 5 3
17 17 19 20 18 16 17 17 19 21 19 20 11 3 2 2 2 2 3 3 4 4 4 3 3 6 1 2 3 5 2 6 8 5 2 1 2 4 6 4 2 3 4 4 3 3 5
16 15 16 19 16 15 16 16 16 18 17 16 6 3 2 2 1 2 2 4 3 5 4 4 3 0 1 3 6 4 2 5 10 5 5 3 3 7 6 6 2 3 5 6 6 3 3
16 16 16 17 17 15 15 16 15 15 15 11 3 2 2 3 2 1 1 3 3 3 5 8 3 7 5 3 3 4 4 3 4 7 4 4 4 4 10 17 14 15 13 11 11 10 6
16 16 17 17 17 16 14 14 13 13 12 6 2 3 3 7 9 2 3 4 4 3 6 5 5 2 8 7 7 5 2 4 6 4 6 3 4 3 6 8 9 7 14 17 17 15 18
19 18 17 17 17 16 14 13 13 13 12 4 4 3 3 5 2 1 4 4 2 1 6 4 9 2 6 11 18 17 14 10 6 8 7 6 1 3 6 6 8 6 8 14 6 5 17
20 21 19 19 19 18 16 14 13 13 13 11 10 7 3 4 4 4 4 6 5 7 6 5 7 5 5 6 15 17 16 13 11 9 9 4 4 2 4 6 4 5 4 6 14 6 15
24 24 22 20 20 19 17 15 14 14 14 16 14 9 8 3 8 11 16 11 9 13 10 14 17 14 9 6 3 6 3 3 3 1 7 6 3 2 2 2 9 4 3 5 7 7 17
27 26 22 26 24 22 20 18 17 16 16 17 20 17 11 3 8 19 6 7 4 4 3 6 7 8 5 2 2 3 4 4 3 2 6 6 3 2 1 2 5 4 2 3 2 5 6
27 28 31 26 28 29 25 24 24 21 19 20 21 21 20 10 18 19 8 4 5 4 3 2 4 4 9 3 3 4 5 3 4 7 6 3 3 7 5 4 9 9 6 4 1 6 3
21 24 27 28 30 29 28 27 26 26 24 22 24 22 28 16 26 28 28 21 16 9 4 4 3 4 3 4 4 5 5 5 2 5 7 9 8 5 4 4 9 10 6 7 6 3 6
21 21 22 23 24 25 26 29 28 27 26 24 27 26 27 38 19 12 24 33 36 33 23 13 9 5 13 2 2 2 3 1 4 4 4 3 7 5 11 8 4 25 12 14 12 10 12
Wind_Direction
36 34 32 36 40 45 42 48 45 49 53 55 57 64 69 78 112 119 121 118 97 100 104 108 106 97 89 86 89 69 111 59 48 51 54 33 18 14 353 111 152 192 288 318 301 275 263
34 37 37 37 44 47 44 49 50 55 62 58 66 73 81 95 105 96 102 103 100 111 107 95 98 98 83 77 84 77 51 37 52 42 31 39 18 342 298 307 186 318 303 298 289 274 268
35 39 40 41 51 49 53 53 55 57 62 63 70 75 85 96 107 111 118 105 101 108 97 96 85 92 84 82 89 55 42 330 109 109 20 322 321 337 333 312 323 310 296 289 269 250 232
32 41 45 46 57 48 54 59 62 65 67 71 73 70 73 88 97 102 95 84 88 95 91 78 67 74 72 92 87 68 342 340 358 359 326 320 338 311 272 303 318 275 286 284 300 145 210
36 34 46 52 59 61 53 59 68 71 70 73 73 76 80 89 94 94 92 82 81 89 71 64 45 23 74 72 57 33 255 317 300 330 321 328 339 288 315 258 298 346 308 304 314 236 191
39 38 38 49 55 62 68 66 63 67 74 81 81 77 81 89 92 86 88 82 64 49 33 54 30 47 37 10 350 355 345 341 318 292 287 253 228 302 324 244 271 303 258 237 239 286 279
39 39 40 42 50 54 58 66 75 74 71 71 68 69 93 103 85 39 31 74 67 48 54 74 62 83 36 353 11 1 337 309 279 283 264 214 74 268 267 265 234 271 283 284 274 279 258
36 36 37 38 42 46 53 52 54 57 64 60 48 62 87 76 93 68 64 68 55 66 63 70 58 53 80 355 317 302 1 333 346 309 325 1 272 275 286 311 290 289 279 280 289 315 322
32 35 33 33 32 37 40 44 44 40 41 41 52 75 101 114 74 42 36 37 17 25 55 255 47 31 56 349 339 12 346 333 273 286 339 210 257 310 338 335 345 320 302 301 250 326 302
28 28 31 28 28 27 25 28 29 31 30 29 33 60 109 222 326 4 14 7 357 24 67 295 264 309 302 317 304 253 348 359 319 286 314 269 279 360 325 312 321 311 278 348 326 336 258
26 25 22 22 21 17 18 19 20 20 15 12 11 14 17 6 345 342 347 346 350 39 42 278 298 295 288 273 291 256 332 146 233 276 49 261 333 346 311 294 2 252 323 272 273 295 330
15 19 18 15 14 9 3 359 356 355 353 350 347 339 328 327 320 320 321 329 345 45 281 335 281 281 338 225 211 221 237 242 266 291 217 239 248 216 222 287 248 274 314 326 273 272 270
11 9 10 10 7 6 359 351 347 347 343 341 336 318 309 326 338 324 315 328 41 93 236 312 315 338 315 277 256 185 263 296 38 19 350 317 259 200 182 327 357 74 284 326 305 258 236
352 357 360 0 3 0 355 352 345 340 341 342 341 328 317 312 333 335 350 52 67 238 256 292 274 290 249 350 277 285 304 76 9 84 305 44 333 179 186 209 252 292 236 150 251 274 281
349 346 348 351 353 356 354 347 348 346 339 342 341 333 337 358 345 348 7 54 204 280 240 340 319 325 305 295 316 310 223 156 134 92 162 2 278 313 214 137 128 330 282 108 265 238 313
342 341 339 339 343 346 351 350 342 347 344 341 343 337 12 350 338 317 70 226 229 30 320 244 334 152 312 320 11 6 252 152 139 148 137 289 305 258 180 46 259 191 308 31 261 335 285
334 332 332 331 332 338 344 350 347 343 348 346 342 346 31 355 339 347 118 240 290 158 217 296 318 303 282 330 332 245 270 266 163 179 200 274 133 291 81 188 196 350 306 239 130 177 205
330 324 322 324 326 332 341 345 347 347 348 347 354 343 339 329 6 159 174 256 291 205 206 268 226 245 247 303 276 262 251 198 142 147 236 237 192 269 234 240 117 167 237 165 134 279 248
324 322 317 318 325 329 331 338 340 344 347 354 340 295 311 319 103 313 271 259 225 200 210 203 246 217 65 257 308 233 272 159 163 165 214 99 258 320 343 355 333 211 203 158 103 38 233
319 317 317 315 316 319 320 325 332 338 346 348 347 353 291 275 228 173 335 264 230 215 246 218 262 239 269 261 223 260 256 188 189 175 168 132 238 201 212 219 150 217 201 180 147 142 247
308 308 313 311 311 314 313 313 322 330 342 344 337 308 317 293 300 270 306 274 249 240 222 199 252 216 183 279 285 223 237 165 185 176 169 148 232 225 256 263 262 254 243 208 199 196 195
296 298 303 306 310 315 315 315 315 320 331 328 292 324 314 282 289 269 225 243 223 258 164 236 219 174 208 206 206 229 200 213 223 182 170 182 270 9 282 267 238 253 237 228 231 227 245
286 288 295 301 302 306 311 314 310 314 318 286 219 253 297 268 249 158 227 241 324 122 266 227 211 242 257 248 250 260 253 236 212 169 197 168 163 28 271 328 312 307 229 202 197 199 218
282 285 285 292 297 299 300 300 302 304 299 290 272 229 186 271 224 210 233 275 256 229 233 240 229 188 237 280 300 277 261 252 238 219 178 151 132 174 274 335 334 254 167 181 205 224 214
283 278 281 284 291 291 291 291 294 289 295 286 280 241 198 234 247 274 258 265 283 254 240 241 241 243 244 302 318 322 322 7 234 167 185 151 140 261 263 247 289 298 201 174 174 279 219
278 277 272 286 283 279 280 288 291 290 279 286 279 259 217 211 229 245 256 251 246 226 275 222 224 226 212 177 156 233 244 251 208 151 23 147 123 147 295 213 260 229 264 228 182 293 218
270 269 279 275 273 267 270 281 288 288 281 270 279 275 239 221 238 234 218 230 240 244 258 183 196 180 191 170 193 205 239 198 205 183 169 141 197 220 220 254 275 253 175 151 241 250 279
282 281 277 276 273 275 270 276 278 280 281 274 272 273 261 251 251 248 250 238 231 223 207 164 0 225 136 188 178 227 203 227 226 166 175 171 167 198 188 219 273 168 116 174 218 279 288
281 281 283 286 287 288 283 274 276 278 276 278 272 269 273 248 259 256 250 249 246 253 253 225 216 179 212 202 250 295 268 213 185 243 148 248 204 186 194 215 254 188 216 239 249 269 273